| time (UTC) | temp F | wind direction | speed knots | gust knots | rain 1hr in | rain 24hr in | rain mn in | humidity % | barometer mb |
| 20260506024033 | 50 | 16 | 4.3 | 11.3 | 0.00 | 0.00 | 0.00 | 82 | 1008.6 |
| 20260506023531 | 50 | 61 | 5.2 | 10.4 | 0.00 | 0.00 | 0.00 | 82 | 1008.6 |
| 20260506023032 | 50 | 288 | 6.1 | 10.4 | 0.00 | 0.00 | 0.00 | 81 | 1008.6 |
| 20260506022531 | 50 | 71 | 5.2 | 10.4 | 0.00 | 0.00 | 0.00 | 81 | 1008.5 |
| 20260506022032 | 50 | 14 | 5.2 | 10.4 | 0.00 | 0.00 | 0.00 | 81 | 1008.5 |
| 20260506021802 | 50 | 329 | 6.1 | 11.3 | 0.00 | 0.00 | 0.00 | 81 | 1008.4 |
| 20260506021258 | 50 | 334 | 5.2 | 11.3 | 0.00 | 0.00 | 0.00 | 80 | 1008.4 |
| 20260506020527 | 50 | 329 | 4.3 | 8.7 | 0.00 | 0.00 | 0.00 | 82 | 1008.4 |
| 20260506020027 | 50 | 342 | 4.3 | 10.4 | 0.00 | 0.00 | 0.00 | 82 | 1008.4 |
| 20260506015527 | 50 | 334 | 3.5 | 10.4 | 0.00 | 0.00 | 0.00 | 84 | 1008.5 |
| 20260506015027 | 50 | 351 | 2.6 | 7.0 | 0.00 | 0.00 | 0.00 | 84 | 1008.4 |
| 20260506014527 | 50 | 311 | 3.5 | 7.0 | 0.00 | 0.00 | 0.00 | 84 | 1008.5 |
| 20260506014025 | 50 | 0 | 3.5 | 5.2 | 0.00 | 0.00 | 0.00 | 84 | 1008.5 |
| 20260506013532 | 50 | 341 | 2.6 | 5.2 | 0.00 | 0.00 | 0.00 | 84 | 1008.5 |
| 20260506013025 | 50 | 17 | 3.5 | 6.1 | 0.00 | 0.00 | 0.00 | 84 | 1008.5 |
| 20260506012525 | 50 | 329 | 3.5 | 7.8 | 0.00 | 0.00 | 0.00 | 84 | 1008.5 |
| 20260506012027 | 49 | 355 | 3.5 | 7.8 | 0.00 | 0.00 | 0.00 | 84 | 1008.6 |
| 20260506011525 | 50 | 351 | 3.5 | 7.8 | 0.00 | 0.00 | 0.00 | 84 | 1008.6 |
| 20260506011025 | 49 | 340 | 3.5 | 7.0 | 0.00 | 0.00 | 0.00 | 84 | 1008.6 |
| 20260506010519 | 49 | 337 | 3.5 | 7.0 | 0.00 | 0.00 | 0.00 | 84 | 1008.7 |
| 20260506010011 | 49 | 309 | 2.6 | 7.0 | 0.00 | 0.00 | 0.00 | 84 | 1008.7 |
| 20260506005509 | 49 | 322 | 2.6 | 7.0 | 0.00 | 0.00 | 0.00 | 84 | 1008.7 |
| 20260506004511 | 49 | 12 | 3.5 | 7.0 | 0.00 | 0.00 | 0.00 | 83 | 1008.9 |
| 20260506004011 | 49 | 298 | 3.5 | 7.0 | 0.00 | 0.00 | 0.00 | 83 | 1009.1 |
| 20260506003509 | 49 | 290 | 3.5 | 7.0 | 0.00 | 0.00 | 0.00 | 83 | 1009.0 |
| 20260506003011 | 50 | 355 | 3.5 | 7.0 | 0.00 | 0.00 | 0.00 | 83 | 1009.0 |
| 20260506002509 | 50 | 309 | 3.5 | 7.0 | 0.00 | 0.00 | 0.00 | 82 | 1008.9 |
| 20260506002009 | 50 | 311 | 3.5 | 7.0 | 0.00 | 0.00 | 0.00 | 82 | 1009.1 |
| 20260506001514 | 50 | 332 | 3.5 | 7.0 | 0.00 | 0.00 | 0.00 | 82 | 1009.1 |
| 20260506001242 | 50 | 311 | 3.5 | 7.8 | 0.00 | 0.00 | 0.00 | 82 | 1009.1 |
| 20260506000742 | 50 | 355 | 4.3 | 7.8 | 0.00 | 0.00 | 0.00 | 82 | 1009.3 |
| 20260506000000 | 50 | 14 | 4.3 | 7.8 | 0.00 | 0.00 | 0.00 | 81 | 1009.1 |
| 20260505235453 | 50 | 350 | 4.3 | 7.8 | 0.00 | 0.00 | 0.00 | 81 | 1009.2 |
| 20260505234948 | 50 | 355 | 4.3 | 9.6 | 0.00 | 0.00 | 0.00 | 81 | 1009.2 |
| 20260505234448 | 50 | 355 | 4.3 | 9.6 | 0.00 | 0.00 | 0.00 | 81 | 1009.3 |
| 20260505233949 | 50 | 335 | 4.3 | 7.8 | 0.00 | 0.00 | 0.00 | 80 | 1009.3 |
| 20260505233449 | 50 | 355 | 5.2 | 7.8 | 0.00 | 0.00 | 0.00 | 80 | 1009.3 |
| 20260505232950 | 50 | 336 | 5.2 | 12.2 | 0.00 | 0.00 | 0.00 | 80 | 1009.3 |
| 20260505232447 | 50 | 340 | 5.2 | 12.2 | 0.00 | 0.00 | 0.00 | 80 | 1009.4 |
| 20260505232219 | 50 | 305 | 4.3 | 9.6 | 0.00 | 0.00 | 0.00 | 80 | 1009.4 |
| 20260505231717 | 50 | 332 | 4.3 | 8.7 | 0.00 | 0.00 | 0.00 | 80 | 1009.4 |
| 20260505230947 | 50 | 313 | 4.3 | 8.7 | 0.00 | 0.00 | 0.00 | 80 | 1009.5 |
| 20260505230501 | 50 | 348 | 4.3 | 8.7 | 0.00 | 0.00 | 0.00 | 79 | 1009.5 |
| 20260505225447 | 49 | 342 | 4.3 | 7.8 | 0.00 | 0.00 | 0.00 | 80 | 1009.6 |
| 20260505224943 | 49 | 28 | 3.5 | 7.0 | 0.00 | 0.00 | 0.00 | 80 | 1009.6 |
| 20260505223941 | 49 | 318 | 2.6 | 6.1 | 0.00 | 0.00 | 0.00 | 80 | 1009.6 |
| 20260505223439 | 49 | 11 | 2.6 | 5.2 | 0.00 | 0.00 | 0.00 | 81 | 1009.6 |
| 20260505222939 | 49 | 355 | 2.6 | 5.2 | 0.00 | 0.00 | 0.00 | 81 | 1009.7 |
| 20260505222439 | 49 | 0 | 2.6 | 6.1 | 0.00 | 0.00 | 0.00 | 81 | 1009.7 |
| 20260505221940 | 49 | 338 | 2.6 | 6.1 | 0.00 | 0.00 | 0.00 | 81 | 1009.7 |
| 20260505221439 | 49 | 355 | 2.6 | 4.3 | 0.00 | 0.00 | 0.00 | 81 | 1009.7 |
| 20260505220939 | 49 | 342 | 2.6 | 5.2 | 0.00 | 0.00 | 0.00 | 81 | 1009.8 |
| 20260505220441 | 49 | 5 | 2.6 | 5.2 | 0.00 | 0.00 | 0.00 | 81 | 1009.8 |
| 20260505215938 | 49 | 355 | 1.7 | 4.3 | 0.00 | 0.00 | 0.00 | 81 | 1009.9 |
| 20260505215438 | 49 | 319 | 2.6 | 4.3 | 0.00 | 0.00 | 0.00 | 81 | 1009.9 |
| 20260505214938 | 49 | 338 | 2.6 | 4.3 | 0.00 | 0.00 | 0.00 | 81 | 1009.9 |
| 20260505214439 | 49 | 339 | 2.6 | 6.1 | 0.00 | 0.00 | 0.00 | 80 | 1009.9 |
| 20260505213940 | 49 | 338 | 3.5 | 6.1 | 0.00 | 0.00 | 0.00 | 80 | 1009.9 |
| 20260505213437 | 50 | 335 | 3.5 | 5.2 | 0.00 | 0.00 | 0.00 | 80 | 1010.0 |
| 20260505212938 | 50 | 336 | 3.5 | 7.0 | 0.00 | 0.00 | 0.00 | 79 | 1009.9 |
| 20260505212438 | 50 | 335 | 3.5 | 7.0 | 0.00 | 0.00 | 0.00 | 79 | 1010.0 |
| 20260505211939 | 50 | 10 | 4.3 | 7.8 | 0.00 | 0.00 | 0.00 | 79 | 1009.9 |
| 20260505211432 | 50 | 338 | 4.3 | 8.7 | 0.00 | 0.00 | 0.00 | 79 | 1009.9 |
| 20260505210932 | 50 | 332 | 4.3 | 8.7 | 0.00 | 0.00 | 0.00 | 78 | 1010.0 |
| 20260505210433 | 50 | 323 | 4.3 | 8.7 | 0.00 | 0.00 | 0.00 | 78 | 1010.0 |
| 20260505205931 | 50 | 355 | 4.3 | 9.6 | 0.00 | 0.00 | 0.00 | 78 | 1010.0 |
| 20260505205430 | 51 | 330 | 4.3 | 9.6 | 0.00 | 0.00 | 0.00 | 78 | 1010.0 |
| 20260505204930 | 51 | 5 | 4.3 | 9.6 | 0.00 | 0.00 | 0.00 | 78 | 1010.0 |
| 20260505204432 | 51 | 0 | 5.2 | 9.6 | 0.00 | 0.00 | 0.00 | 78 | 1010.1 |
| 20260505203929 | 51 | 322 | 5.2 | 9.6 | 0.00 | 0.00 | 0.00 | 78 | 1010.1 |
| 20260505203429 | 51 | 333 | 5.2 | 10.4 | 0.00 | 0.00 | 0.00 | 78 | 1010.1 |
| 20260505202931 | 51 | 321 | 6.1 | 10.4 | 0.00 | 0.00 | 0.00 | 78 | 1010.2 |
| 20260505202429 | 51 | 355 | 5.2 | 13.0 | 0.00 | 0.00 | 0.00 | 78 | 1010.2 |
| 20260505202202 | 51 | 0 | 5.2 | 13.0 | 0.00 | 0.00 | 0.00 | 78 | 1010.2 |
| 20260505201428 | 51 | 347 | 5.2 | 10.4 | 0.00 | 0.00 | 0.00 | 78 | 1010.1 |
| 20260505200928 | 51 | 0 | 4.3 | 9.6 | 0.00 | 0.00 | 0.00 | 78 | 1010.1 |
| 20260505200429 | 51 | 339 | 5.2 | 9.6 | 0.00 | 0.00 | 0.00 | 78 | 1010.0 |
| 20260505195922 | 51 | 49 | 6.1 | 9.6 | 0.00 | 0.00 | 0.00 | 78 | 1010.1 |
| 20260505195423 | 51 | 5 | 6.1 | 10.4 | 0.00 | 0.00 | 0.00 | 78 | 1010.0 |
| 20260505194923 | 52 | 29 | 6.1 | 12.2 | 0.00 | 0.00 | 0.00 | 78 | 1010.0 |
| 20260505194421 | 52 | 24 | 6.1 | 12.2 | 0.00 | 0.00 | 0.00 | 78 | 1009.9 |
| 20260505193921 | 52 | 355 | 5.2 | 9.6 | 0.00 | 0.00 | 0.00 | 78 | 1009.9 |
| 20260505193653 | 52 | 324 | 5.2 | 8.7 | 0.00 | 0.00 | 0.00 | 77 | 1009.7 |
| 20260505192921 | 52 | 42 | 5.2 | 8.7 | 0.00 | 0.00 | 0.00 | 77 | 1009.8 |
| 20260505192419 | 52 | 344 | 6.1 | 12.2 | 0.00 | 0.00 | 0.00 | 77 | 1009.8 |
| 20260505191920 | 53 | 350 | 6.1 | 12.2 | 0.00 | 0.00 | 0.00 | 76 | 1009.7 |
| 20260505191420 | 53 | 325 | 6.1 | 12.2 | 0.00 | 0.00 | 0.00 | 76 | 1009.8 |
| 20260505190920 | 53 | 355 | 6.1 | 11.3 | 0.00 | 0.00 | 0.00 | 76 | 1009.7 |
| 20260505190421 | 53 | 0 | 6.1 | 11.3 | 0.00 | 0.00 | 0.00 | 76 | 1009.7 |
| 20260505190152 | 53 | 322 | 6.1 | 11.3 | 0.00 | 0.00 | 0.00 | 76 | 1009.5 |
| 20260505185649 | 53 | 53 | 6.1 | 11.3 | 0.00 | 0.00 | 0.00 | 76 | 1009.5 |
| 20260505184917 | 53 | 342 | 6.1 | 12.2 | 0.00 | 0.00 | 0.00 | 76 | 1009.3 |
| 20260505184419 | 54 | 332 | 6.1 | 12.2 | 0.00 | 0.00 | 0.00 | 75 | 1009.4 |
| 20260505183917 | 54 | 313 | 7.0 | 13.0 | 0.00 | 0.00 | 0.00 | 75 | 1009.3 |
| 20260505183420 | 54 | 17 | 7.0 | 13.0 | 0.00 | 0.00 | 0.00 | 75 | 1009.3 |
| 20260505182917 | 54 | 319 | 7.0 | 12.2 | 0.00 | 0.00 | 0.00 | 74 | 1009.3 |
| 20260505182418 | 54 | 327 | 7.0 | 13.9 | 0.00 | 0.00 | 0.00 | 74 | 1009.3 |
| 20260505181919 | 55 | 0 | 7.8 | 13.9 | 0.00 | 0.00 | 0.00 | 74 | 1009.2 |
| 20260505181418 | 55 | 350 | 7.0 | 14.8 | 0.00 | 0.00 | 0.00 | 73 | 1009.2 |
| 20260505181150 | 55 | 335 | 7.0 | 14.8 | 0.00 | 0.00 | 0.00 | 72 | 1009.1 |
| 20260505180417 | 55 | 292 | 7.0 | 11.3 | 0.00 | 0.00 | 0.00 | 73 | 1009.1 |
| 20260505180151 | 55 | 319 | 7.8 | 13.0 | 0.00 | 0.00 | 0.00 | 72 | 1009.1 |
| 20260505175414 | 56 | 345 | 7.8 | 13.0 | 0.00 | 0.00 | 0.00 | 71 | 1009.1 |
| 20260505174913 | 56 | 355 | 7.8 | 12.2 | 0.00 | 0.00 | 0.00 | 71 | 1009.2 |
| 20260505174412 | 56 | 342 | 7.8 | 13.9 | 0.00 | 0.00 | 0.00 | 71 | 1009.1 |
| 20260505173912 | 56 | 335 | 7.8 | 13.9 | 0.00 | 0.00 | 0.00 | 71 | 1009.1 |
| 20260505173411 | 56 | 344 | 8.7 | 15.6 | 0.00 | 0.00 | 0.00 | 70 | 1009.1 |
| 20260505172910 | 56 | 327 | 8.7 | 15.6 | 0.00 | 0.00 | 0.00 | 70 | 1009.0 |
| 20260505172411 | 57 | 29 | 7.8 | 16.5 | 0.00 | 0.00 | 0.00 | 70 | 1009.1 |
| 20260505171908 | 57 | 5 | 7.8 | 16.5 | 0.00 | 0.00 | 0.00 | 69 | 1009.2 |
| 20260505171408 | 57 | 345 | 7.8 | 14.8 | 0.00 | 0.00 | 0.00 | 70 | 1009.2 |
| 20260505170908 | 57 | 11 | 8.7 | 13.9 | 0.00 | 0.00 | 0.00 | 69 | 1009.2 |
| 20260505170410 | 58 | 321 | 8.7 | 13.9 | 0.00 | 0.00 | 0.00 | 69 | 1009.2 |
| 20260505165910 | 58 | 0 | 7.0 | 14.8 | 0.00 | 0.00 | 0.00 | 68 | 1009.2 |
| 20260505165359 | 58 | 17 | 7.0 | 14.8 | 0.00 | 0.00 | 0.00 | 68 | 1009.3 |
| 20260505165133 | 58 | 346 | 7.0 | 13.0 | 0.00 | 0.00 | 0.00 | 69 | 1009.3 |
| 20260505164354 | 58 | 329 | 7.0 | 13.9 | 0.00 | 0.00 | 0.00 | 69 | 1009.4 |
| 20260505164127 | 59 | 291 | 7.0 | 14.8 | 0.00 | 0.00 | 0.00 | 69 | 1009.4 |
| 20260505163628 | 59 | 319 | 7.0 | 14.8 | 0.00 | 0.00 | 0.00 | 69 | 1009.4 |
| 20260505163126 | 59 | 0 | 7.0 | 14.8 | 0.00 | 0.00 | 0.00 | 69 | 1009.4 |
| 20260505162355 | 59 | 16 | 7.0 | 14.8 | 0.00 | 0.00 | 0.00 | 68 | 1009.3 |
| 20260505162124 | 59 | 31 | 7.0 | 13.9 | 0.00 | 0.00 | 0.00 | 69 | 1009.5 |
| 20260505161354 | 59 | 327 | 7.8 | 13.9 | 0.00 | 0.00 | 0.00 | 68 | 1009.5 |
| 20260505160855 | 59 | 337 | 7.0 | 13.9 | 0.00 | 0.00 | 0.00 | 69 | 1009.4 |
| 20260505160353 | 59 | 0 | 7.0 | 13.9 | 0.00 | 0.00 | 0.00 | 70 | 1009.4 |
| 20260505153351 | 59 | 316 | 5.2 | 13.0 | 0.00 | 0.00 | 0.00 | 70 | 1009.5 |
| 20260505152351 | 59 | 333 | 5.2 | 10.4 | 0.00 | 0.00 | 0.00 | 71 | 1009.5 |
| 20260505151849 | 59 | 0 | 4.3 | 10.4 | 0.00 | 0.00 | 0.00 | 72 | 1009.6 |
| 20260505151350 | 59 | 22 | 5.2 | 10.4 | 0.00 | 0.00 | 0.00 | 72 | 1009.6 |
| 20260505150849 | 59 | 355 | 4.3 | 10.4 | 0.00 | 0.00 | 0.00 | 71 | 1009.6 |
| 20260505150405 | 59 | 317 | 3.5 | 7.0 | 0.00 | 0.00 | 0.00 | 73 | 1009.5 |
| 20260505150121 | 59 | 52 | 3.5 | 7.0 | 0.00 | 0.00 | 0.00 | 74 | 1009.6 |
| 20260505140341 | 58 | 5 | 4.3 | 9.6 | 0.00 | 0.00 | 0.00 | 73 | 1009.9 |
| 20260505140111 | 58 | 339 | 4.3 | 9.6 | 0.00 | 0.00 | 0.00 | 74 | 1010.1 |
| 20260505124829 | 55 | 41 | 4.3 | 9.6 | 0.00 | 0.00 | 0.00 | 79 | 1010.7 |
| 20260505124329 | 55 | 42 | 3.5 | 8.7 | 0.00 | 0.00 | 0.00 | 80 | 1010.7 |
| 20260505123831 | 55 | 54 | 5.2 | 8.7 | 0.00 | 0.00 | 0.00 | 80 | 1010.6 |
| 20260505123343 | 55 | 62 | 4.3 | 8.7 | 0.00 | 0.00 | 0.00 | 80 | 1010.6 |
| 20260505122827 | 55 | 37 | 3.5 | 8.7 | 0.00 | 0.00 | 0.00 | 80 | 1010.6 |
| 20260505122321 | 55 | 19 | 3.5 | 9.6 | 0.00 | 0.00 | 0.00 | 80 | 1010.6 |
| 20260505121820 | 55 | 76 | 4.3 | 10.4 | 0.00 | 0.00 | 0.00 | 80 | 1010.7 |
| 20260505121319 | 55 | 309 | 4.3 | 10.4 | 0.00 | 0.00 | 0.00 | 80 | 1010.7 |
| 20260505121050 | 54 | 39 | 4.3 | 9.6 | 0.00 | 0.00 | 0.00 | 80 | 1010.7 |
| 20260505120334 | 55 | 350 | 5.2 | 9.6 | 0.00 | 0.00 | 0.00 | 80 | 1010.7 |
| 20260505115819 | 55 | 63 | 4.3 | 8.7 | 0.00 | 0.00 | 0.00 | 80 | 1010.7 |
| 20260505115319 | 55 | 309 | 4.3 | 9.6 | 0.00 | 0.00 | 0.00 | 80 | 1010.8 |
| 20260505114820 | 54 | 341 | 4.3 | 9.6 | 0.00 | 0.00 | 0.00 | 80 | 1010.7 |
| 20260505114319 | 54 | 40 | 4.3 | 9.6 | 0.00 | 0.00 | 0.00 | 81 | 1010.9 |
| 20260505113819 | 54 | 44 | 5.2 | 11.3 | 0.00 | 0.00 | 0.00 | 80 | 1010.9 |
| 20260505113550 | 54 | 25 | 4.3 | 11.3 | 0.00 | 0.00 | 0.00 | 80 | 1010.9 |
| 20260505112819 | 54 | 336 | 3.5 | 9.6 | 0.00 | 0.00 | 0.00 | 81 | 1010.9 |
| 20260505112319 | 54 | 340 | 5.2 | 9.6 | 0.00 | 0.00 | 0.00 | 81 | 1010.8 |
| 20260505111819 | 54 | 348 | 5.2 | 9.6 | 0.00 | 0.00 | 0.00 | 81 | 1010.8 |
| 20260505111318 | 54 | 0 | 4.3 | 9.6 | 0.00 | 0.00 | 0.00 | 81 | 1010.8 |
| 20260505110818 | 54 | 49 | 4.3 | 9.6 | 0.00 | 0.00 | 0.00 | 81 | 1010.9 |
| 20260505110550 | 54 | 300 | 5.2 | 9.6 | 0.00 | 0.00 | 0.00 | 81 | 1010.8 |
| 20260505101814 | 53 | 24 | 4.3 | 10.4 | 0.00 | 0.00 | 0.00 | 82 | 1011.2 |
| 20260505101312 | 53 | 312 | 4.3 | 10.4 | 0.00 | 0.00 | 0.00 | 82 | 1011.2 |
| 20260505100811 | 53 | 43 | 4.3 | 8.7 | 0.00 | 0.00 | 0.00 | 82 | 1011.2 |
| 20260505100311 | 53 | 58 | 4.3 | 8.7 | 0.00 | 0.00 | 0.00 | 82 | 1011.2 |
| 20260505095811 | 53 | 37 | 4.3 | 9.6 | 0.00 | 0.00 | 0.00 | 82 | 1011.3 |
| 20260505095311 | 53 | 34 | 4.3 | 10.4 | 0.00 | 0.00 | 0.00 | 82 | 1011.4 |
| 20260505095044 | 53 | 41 | 4.3 | 10.4 | 0.00 | 0.00 | 0.00 | 82 | 1011.4 |
| 20260505094311 | 53 | 349 | 4.3 | 11.3 | 0.00 | 0.00 | 0.00 | 83 | 1011.3 |
| 20260505093812 | 53 | 17 | 5.2 | 11.3 | 0.00 | 0.00 | 0.00 | 82 | 1011.3 |
| 20260505093310 | 53 | 24 | 5.2 | 9.6 | 0.00 | 0.00 | 0.00 | 82 | 1011.4 |
| 20260505092812 | 53 | 283 | 4.3 | 9.6 | 0.00 | 0.00 | 0.00 | 83 | 1011.5 |
| 20260505092312 | 53 | 67 | 4.3 | 9.6 | 0.00 | 0.00 | 0.00 | 83 | 1011.5 |
| 20260505091811 | 52 | 326 | 4.3 | 8.7 | 0.00 | 0.00 | 0.00 | 83 | 1011.6 |
| 20260505091311 | 52 | 22 | 3.5 | 8.7 | 0.00 | 0.00 | 0.00 | 83 | 1011.6 |
| 20260505090808 | 52 | 349 | 3.5 | 7.8 | 0.00 | 0.00 | 0.00 | 83 | 1011.7 |
| 20260505090307 | 52 | 31 | 4.3 | 11.3 | 0.00 | 0.00 | 0.00 | 83 | 1011.7 |
| 20260505085809 | 52 | 45 | 5.2 | 11.3 | 0.00 | 0.00 | 0.00 | 83 | 1011.6 |
| 20260505085309 | 52 | 37 | 4.3 | 11.3 | 0.00 | 0.00 | 0.00 | 83 | 1011.6 |
| 20260505085038 | 52 | 340 | 5.2 | 10.4 | 0.00 | 0.00 | 0.00 | 84 | 1011.6 |
| 20260505084307 | 52 | 331 | 6.1 | 11.3 | 0.00 | 0.00 | 0.00 | 84 | 1011.6 |
| 20260505083809 | 52 | 46 | 6.1 | 11.3 | 0.00 | 0.00 | 0.00 | 84 | 1011.5 |
| 20260505083307 | 52 | 76 | 6.1 | 12.2 | 0.00 | 0.00 | 0.00 | 84 | 1011.4 |
| 20260505082812 | 52 | 41 | 5.2 | 12.2 | 0.00 | 0.00 | 0.00 | 84 | 1011.5 |
| 20260505082309 | 52 | 38 | 5.2 | 11.3 | 0.00 | 0.00 | 0.00 | 85 | 1011.4 |
| 20260505081807 | 51 | 24 | 5.2 | 12.2 | 0.00 | 0.00 | 0.00 | 85 | 1011.3 |
| 20260505081538 | 51 | 297 | 5.2 | 12.2 | 0.00 | 0.00 | 0.00 | 85 | 1011.4 |
| 20260505080806 | 51 | 17 | 5.2 | 10.4 | 0.00 | 0.00 | 0.00 | 85 | 1011.4 |
| 20260505080307 | 51 | 323 | 5.2 | 10.4 | 0.00 | 0.00 | 0.00 | 85 | 1011.4 |
| 20260505075806 | 51 | 42 | 4.3 | 10.4 | 0.00 | 0.00 | 0.00 | 85 | 1011.5 |
| 20260505075307 | 51 | 348 | 4.3 | 13.0 | 0.00 | 0.00 | 0.00 | 85 | 1011.4 |
| 20260505074807 | 51 | 348 | 5.2 | 13.0 | 0.00 | 0.00 | 0.00 | 85 | 1011.4 |
| 20260505074307 | 51 | 346 | 6.1 | 11.3 | 0.00 | 0.00 | 0.00 | 85 | 1011.4 |
| 20260505073807 | 51 | 324 | 5.2 | 10.4 | 0.00 | 0.00 | 0.00 | 85 | 1011.5 |
| 20260505073539 | 51 | 334 | 6.1 | 12.2 | 0.00 | 0.00 | 0.00 | 85 | 1011.5 |
| 20260505072800 | 51 | 355 | 6.1 | 12.2 | 0.00 | 0.00 | 0.00 | 85 | 1011.5 |
| 20260505072300 | 51 | 306 | 5.2 | 10.4 | 0.00 | 0.00 | 0.00 | 86 | 1011.4 |
| 20260505071800 | 51 | 343 | 5.2 | 9.6 | 0.00 | 0.00 | 0.00 | 86 | 1011.4 |
| 20260505071031 | 51 | 332 | 4.3 | 9.6 | 0.00 | 0.00 | 0.00 | 87 | 1011.3 |
| 20260505070258 | 51 | 315 | 4.3 | 9.6 | 0.00 | 0.00 | 0.00 | 87 | 1011.6 |
| 20260505065758 | 51 | 332 | 5.2 | 9.6 | 0.00 | 0.00 | 0.00 | 87 | 1011.6 |
| 20260505065258 | 51 | 314 | 5.2 | 10.4 | 0.00 | 0.00 | 0.00 | 87 | 1011.6 |
| 20260505065029 | 50 | 338 | 5.2 | 10.4 | 0.00 | 0.00 | 0.00 | 88 | 1011.6 |
| 20260505064529 | 50 | 36 | 4.3 | 9.6 | 0.00 | 0.00 | 0.00 | 88 | 1011.6 |
| 20260505063759 | 50 | 345 | 4.3 | 7.8 | 0.00 | 0.00 | 0.00 | 88 | 1011.7 |
| 20260505063300 | 50 | 340 | 5.2 | 12.2 | 0.00 | 0.00 | 0.00 | 88 | 1011.7 |
| 20260505062758 | 50 | 5 | 4.3 | 12.2 | 0.00 | 0.00 | 0.00 | 88 | 1011.7 |
| 20260505062526 | 50 | 55 | 3.5 | 8.7 | 0.00 | 0.00 | 0.00 | 89 | 1011.7 |
| 20260505061746 | 50 | 285 | 4.3 | 9.6 | 0.00 | 0.00 | 0.00 | 89 | 1011.8 |
| 20260505061244 | 50 | 42 | 3.5 | 9.6 | 0.00 | 0.00 | 0.00 | 89 | 1011.8 |
| 20260505061018 | 50 | 22 | 3.5 | 7.8 | 0.00 | 0.00 | 0.00 | 89 | 1011.8 |
| 20260505060244 | 50 | 310 | 4.3 | 8.7 | 0.00 | 0.00 | 0.00 | 89 | 1011.9 |
| 20260505055746 | 50 | 20 | 4.3 | 8.7 | 0.00 | 0.00 | 0.00 | 89 | 1011.9 |
| 20260505055245 | 50 | 340 | 3.5 | 7.8 | 0.00 | 0.00 | 0.00 | 89 | 1012.0 |
| 20260505054746 | 50 | 315 | 3.5 | 9.6 | 0.00 | 0.00 | 0.00 | 89 | 1011.9 |
| 20260505054517 | 50 | 336 | 3.5 | 9.6 | 0.00 | 0.00 | 0.00 | 89 | 1012.0 |
| 20260505053746 | 50 | 321 | 3.5 | 8.7 | 0.00 | 0.00 | 0.00 | 89 | 1011.9 |
| 20260505053244 | 50 | 344 | 3.5 | 8.7 | 0.00 | 0.00 | 0.00 | 89 | 1011.9 |
| 20260505052746 | 50 | 40 | 2.6 | 7.0 | 0.00 | 0.00 | 0.00 | 89 | 1011.9 |
| 20260505052515 | 50 | 322 | 3.5 | 7.0 | 0.00 | 0.00 | 0.00 | 89 | 1011.9 |
| 20260505051747 | 50 | 0 | 3.5 | 7.0 | 0.00 | 0.00 | 0.00 | 89 | 1011.8 |
| 20260505051244 | 50 | 43 | 4.3 | 9.6 | 0.00 | 0.00 | 0.00 | 89 | 1011.7 |
| 20260505050744 | 50 | 22 | 4.3 | 9.6 | 0.00 | 0.00 | 0.00 | 89 | 1011.6 |
| 20260505050246 | 50 | 338 | 3.5 | 10.4 | 0.00 | 0.00 | 0.00 | 89 | 1011.6 |
| 20260505041240 | 51 | 14 | 4.3 | 8.7 | 0.00 | 0.00 | 0.00 | 88 | 1011.3 |
| 20260505040734 | 51 | 31 | 4.3 | 8.7 | 0.00 | 0.00 | 0.00 | 88 | 1011.4 |
| 20260505040228 | 51 | 326 | 3.5 | 7.8 | 0.00 | 0.00 | 0.00 | 88 | 1011.4 |
| 20260505035724 | 51 | 304 | 3.5 | 10.4 | 0.00 | 0.00 | 0.00 | 88 | 1011.2 |
| 20260505035227 | 51 | 328 | 3.5 | 10.4 | 0.00 | 0.00 | 0.00 | 88 | 1011.4 |
| 20260505034726 | 51 | 313 | 3.5 | 7.8 | 0.00 | 0.00 | 0.00 | 88 | 1011.4 |
| 20260505034223 | 51 | 333 | 3.5 | 9.6 | 0.00 | 0.00 | 0.00 | 88 | 1011.5 |
| 20260505033724 | 51 | 17 | 3.5 | 9.6 | 0.00 | 0.00 | 0.00 | 88 | 1011.4 |
| 20260505033221 | 51 | 355 | 4.3 | 8.7 | 0.00 | 0.00 | 0.00 | 88 | 1011.5 |
| 20260505032723 | 51 | 325 | 4.3 | 8.7 | 0.00 | 0.00 | 0.00 | 88 | 1011.6 |
| 20260505032453 | 51 | 10 | 4.3 | 7.8 | 0.00 | 0.00 | 0.00 | 88 | 1011.7 |
| 20260505031722 | 51 | 327 | 4.3 | 7.8 | 0.00 | 0.00 | 0.00 | 88 | 1011.6 |
| 20260505031223 | 51 | 0 | 4.3 | 7.8 | 0.00 | 0.00 | 0.00 | 88 | 1011.7 |
| 20260505030722 | 51 | 342 | 3.5 | 7.8 | 0.00 | 0.00 | 0.00 | 88 | 1011.6 |
| 20260505030222 | 51 | 311 | 3.5 | 7.8 | 0.00 | 0.00 | 0.00 | 88 | 1011.6 |
| 20260505025722 | 51 | 340 | 3.5 | 9.6 | 0.00 | 0.00 | 0.00 | 88 | 1011.6 |
| 20260505025449 | 51 | 319 | 4.3 | 10.4 | 0.00 | 0.00 | 0.00 | 88 | 1011.6 |